Miscellaneous Local Product
Issued by NWS Hastings, NE

Home | Current Version | Previous Version | Graphics & Text | Print | Product List | Glossary On
Versions: 1 2 3 4 5 6 7 8 9 10 11 12 13 14 15 16 17 18 19 20 21 22 23 24 25 26 27 28 29 30 31 32 33 34 35 36 37 38 39 40 41 42 43 44 45 46 47 48 49 50
030
AXUS43 KGID 260602
MISGRI

GID CWA HOURLY WEATHER ROUNDUP
NATIONAL WEATHER SERVICE HASTINGS NE
100 AM CDT FRI MAY 26 2017

NOTE: "FAIR" INDICATES FEW OR NO CLOUDS BELOW 12,000 FEET WITH NO
SIGNIFICANT WEATHER AND/OR OBSTRUCTIONS TO VISIBILITY.

...SOUTH CENTRAL NEBRASKA...

CITY           SKY/WX    TMP DP  RH WIND       PRES   REMARKS
GRAND ISLAND   CLOUDY    63  59  87 CALM      29.64S
HASTINGS       CLOUDY    67  57  70 S3        29.65R
KEARNEY        CLOUDY    64  54  68 NW7       29.67R
ORD            CLOUDY    57  53  86 NW6       29.68R
YORK           CLOUDY    64  57  77 SE7       29.63F
AURORA         CLOUDY    64  57  78 SE3       29.63S
LEXINGTON      CLOUDY    61  56  84 W6        29.70R
HOLDREGE       MOCLDY    62  57  83 W5        29.68R
HEBRON         DRIZZLE   66  61  83 SE7       29.58F

...NEBRASKA PANHANDLE...

CITY           SKY/WX    TMP DP  RH WIND       PRES   REMARKS
CHADRON        CLEAR     47  42  83 W3        29.85R
ALLIANCE       PTCLDY    49  42  77 N15       29.81R
SCOTTSBLUFF    PTCLDY    52  39  61 N15       29.83S
SIDNEY         CLOUDY    49  48  97 NW12      29.82R

...WESTERN AND NORTH CENTRAL NEBRASKA...

CITY           SKY/WX    TMP DP  RH WIND       PRES   REMARKS
VALENTINE      CLOUDY    60  40  47 NW15G22   29.77R
AINSWORTH      CLOUDY    59  49  69 NW6       29.73R
ONEILL         PTCLDY    60  52  77 CALM      29.70R
BROKEN BOW     CLOUDY    63  56  78 N9        29.72R
IMPERIAL       CLOUDY    59  50  72 CALM      29.71F
NORTH PLATTE   CLOUDY    58  55  90 NE10      29.71F
MCCOOK         MOCLDY    57  54  89 NW10      29.71R

...EASTERN NEBRASKA...

CITY           SKY/WX    TMP DP  RH WIND       PRES   REMARKS
NORFOLK        PTCLDY    59  53  80 W3        29.66R
SO SIOUX CITY  CLOUDY    60  55  83 SE6       29.65R
TEKAMAH        CLOUDY    63  55  75 SE8       29.65S
ALBION         CLOUDY    57  52  85 NW6       29.67S
OMAHA EPPLEY   CLOUDY    67  55  65 S10       29.66S
OFFUTT AFB     MOCLDY    66  56  70 E6        29.66R
MILLARD        CLOUDY    67  58  71 SE3       29.66S
LINCOLN        MOCLDY    67  56  67 S10       29.65F
NEBRASKA CITY  CLOUDY    67  52  59 SE8       29.67S
BEATRICE       LGT RAIN  67  59  77 S7        29.66F
FALLS CITY     CLOUDY    65  57  75 SE5       29.66S

...NORTHERN KANSAS...

CITY           SKY/WX    TMP DP  RH WIND       PRES   REMARKS
GOODLAND       CLOUDY    55  51  86 N7        29.76R
HILL CITY      PTCLDY    58  57  97 NW8       29.66R
NORTON         CLEAR     59  52  77 NW9       29.68R
PHILLIPSBURG   CLEAR     61  59  94 NW3       29.63R
SMITH CENTER   CLEAR     61  54  77 N5        29.61R
HAYS           LGT RAIN  62  57  83 E10       29.61F
RUSSELL        CLOUDY    62  59  90 SE17      29.57F
CONCORDIA      MOCLDY    64  63  96 SE21G28   29.54F
SALINA         CLOUDY    68  62  81 NE12G21   29.61F
TOPEKA         MOCLDY    66  60  81 E7        29.64F



USA.gov is the U.S. government's official web portal to all federal, state and local government web resources and services.